Location: Praha
(50.0830°N, 14.4670°E)
Time: 01:33:19
(UTC+02:00)

ISS - Pass Details

Date: 02 April 2024
Orbit: 413 x 419 km, 51.6° (Epoch: 13 April)

Event Time Altitude Azimuth Distance (km) Brightness Sun altitude
Rises 20:04:23 0° 278° (W) 2,360 2.6 -5.2°
Reaches altitude 10° 20:08:10 10° 234° (SW) 1,493 -0.4 -5.8°
Maximum altitude 20:08:42 10° 225° (SW) 1,475 -0.6 -5.9°
Drops below altitude 10° 20:09:14 10° 216° (SW) 1,492 -0.7 -6.0°
Sets 20:13:01 0° 172° (S) 2,351 -0.2 -6.6°
